Snow/Ice From: 16-12-2017 16:00 Until: 17-12-2017 16:00 warning for: Snow/Ice Level: Yellow info button

Although rather usual in this region, locally or potentially dangerous phenomena are expected. (such as local winds, summer thunderstorms, rising streams or high waves) Be aware and pay attention to the latest weather updates, especially if you carry out activities exposed to weather or close to a stream or shoreline. 


Meteo18 Weather Cam more information Meteo18 Weather Cam


Thunder radar more information blitzortung!


warning for Snow/Ice more information rain snow radar


Visit our other weather sites:

Template documentation
and downloads

And another site



Weather Underground History page Text

Daily Summary for October 1, 2016 Units:  Metric    English   Both
« Previous Day
Next Day »
Daily Weekly Monthly Yearly Custom
  High: Low: Average:
Temperature: 18.5 °C 12.7 °C 15.4 °C
Dew Point: 15.2 °C 9.7 °C 12.9 °C
Humidity: 97 % 59 % 86 %
Wind Speed: 20.9 km/h 0.0 km/h 5.8 km/h
Wind Gust: 32.2 km/h - -
Wind:- - WSW
Pressure: 1013.4 hPa 1008.7 hPa -
Precipitation: 5.6 mm    
Historical Graphs
 
 
Tabular Data for October 1, 2016
Time Temperature Dew Point Pressure Wind Wind Speed Wind Gust Humidity Rainfall Rate (Hourly)
00:02 15.4 °C 14.8 °C 1011.4 hPa Calm     96 % 0.0 mm
00:12 15.4 °C 14.8 °C 1011.4 hPa Calm     96 % 0.0 mm
00:17 15.4 °C 14.8 °C 1011.4 hPa Calm     96 % 0.0 mm
00:22 15.4 °C 14.8 °C 1011.1 hPa Calm     96 % 0.0 mm
00:27 15.4 °C 14.8 °C 1011.1 hPa Calm     96 % 0.0 mm
00:32 15.4 °C 14.8 °C 1011.1 hPa Calm     96 % 0.5 mm
00:42 15.4 °C 14.8 °C 1011.1 hPa Calm     96 % 0.5 mm
00:47 15.4 °C 14.8 °C 1011.1 hPa Calm     96 % 0.5 mm
00:52 15.4 °C 14.8 °C 1011.1 hPa Calm     96 % 0.5 mm
00:57 15.4 °C 14.8 °C 1011.1 hPa Calm     96 % 0.5 mm
01:02 15.4 °C 14.8 °C 1011.1 hPa Calm   1.6 km/h 96 % 0.5 mm
01:12 15.5 °C 14.9 °C 1011.1 hPa Calm   1.6 km/h 96 % 0.5 mm
01:17 15.5 °C 14.9 °C 1010.7 hPa SE 1.6 km/h 3.2 km/h 96 % 0.5 mm
01:22 15.5 °C 14.9 °C 1010.7 hPa Calm   3.2 km/h 96 % 0.5 mm
01:32 15.6 °C 15.1 °C 1010.7 hPa Calm   3.2 km/h 97 % 0.3 mm
01:37 15.6 °C 15.1 °C 1010.7 hPa WSW 1.6 km/h 6.4 km/h 97 % 0.0 mm
01:42 15.6 °C 15.1 °C 1010.4 hPa Calm   6.4 km/h 97 % 0.0 mm
01:47 15.6 °C 15.1 °C 1010.4 hPa Calm   6.4 km/h 97 % 0.0 mm
01:52 15.6 °C 15.1 °C 1010.4 hPa Calm   6.4 km/h 97 % 0.0 mm
02:02 15.6 °C 15.1 °C 1010.7 hPa WSW 1.6 km/h 1.6 km/h 97 % 0.0 mm
02:07 15.6 °C 15.1 °C 1010.7 hPa Calm   4.8 km/h 97 % 0.0 mm
02:12 15.5 °C 15.0 °C 1010.4 hPa South 3.2 km/h 4.8 km/h 97 % 0.0 mm
02:17 15.6 °C 15.1 °C 1010.4 hPa Calm   4.8 km/h 97 % 0.0 mm
02:22 15.6 °C 15.1 °C 1010.0 hPa Calm   3.2 km/h 97 % 0.0 mm
02:32 15.5 °C 15.0 °C 1010.0 hPa Calm   3.2 km/h 97 % 0.0 mm
02:37 15.5 °C 15.0 °C 1010.0 hPa Calm     97 % 0.0 mm
02:42 15.5 °C 15.0 °C 1010.0 hPa Calm     97 % 0.0 mm
02:52 15.5 °C 15.0 °C 1010.0 hPa Calm     97 % 0.0 mm
02:57 15.4 °C 14.9 °C 1009.7 hPa Calm     97 % 0.0 mm
03:02 15.4 °C 14.9 °C 1009.7 hPa SSW 1.6 km/h 1.6 km/h 97 % 0.0 mm
03:07 15.4 °C 14.9 °C 1009.7 hPa SE 3.2 km/h 3.2 km/h 97 % 0.0 mm
03:12 15.4 °C 14.9 °C 1009.7 hPa SSW 3.2 km/h 4.8 km/h 97 % 0.0 mm
03:17 15.4 °C 14.9 °C 1009.7 hPa SE 1.6 km/h 4.8 km/h 97 % 0.0 mm
03:22 15.4 °C 14.9 °C 1009.7 hPa South 3.2 km/h 4.8 km/h 97 % 0.0 mm
03:27 15.4 °C 14.9 °C 1009.7 hPa Calm   4.8 km/h 97 % 0.0 mm
03:32 15.4 °C 14.9 °C 1009.7 hPa SSW 3.2 km/h 6.4 km/h 97 % 0.0 mm
03:37 15.4 °C 14.9 °C 1009.7 hPa SSE 4.8 km/h 8.0 km/h 97 % 0.0 mm
03:42 15.4 °C 14.9 °C 1009.7 hPa SW 4.8 km/h 8.0 km/h 97 % 0.0 mm
03:47 15.4 °C 14.9 °C 1009.4 hPa SW 1.6 km/h 8.0 km/h 97 % 0.3 mm
03:52 15.4 °C 14.9 °C 1009.4 hPa SSW 3.2 km/h 8.0 km/h 97 % 0.3 mm
03:57 15.4 °C 14.9 °C 1009.4 hPa SSW 8.0 km/h 8.0 km/h 97 % 0.3 mm
04:02 15.4 °C 14.9 °C 1009.4 hPa SW 4.8 km/h 9.7 km/h 97 % 0.5 mm
04:07 15.4 °C 14.9 °C 1009.4 hPa SW 6.4 km/h 12.9 km/h 97 % 0.5 mm
04:12 15.4 °C 14.9 °C 1009.4 hPa SSW 9.7 km/h 12.9 km/h 97 % 0.5 mm
04:17 15.4 °C 14.9 °C 1009.4 hPa SW 11.3 km/h 12.9 km/h 97 % 1.0 mm
04:22 15.4 °C 14.9 °C 1009.4 hPa SSW 8.0 km/h 12.9 km/h 97 % 1.0 mm
04:27 15.5 °C 15.0 °C 1009.4 hPa SSW 11.3 km/h 14.5 km/h 97 % 1.3 mm
04:32 15.5 °C 15.0 °C 1009.4 hPa SSE 8.0 km/h 14.5 km/h 97 % 1.3 mm
04:37 15.6 °C 15.1 °C 1009.0 hPa South 6.4 km/h 17.7 km/h 97 % 1.3 mm
04:42 15.6 °C 15.1 °C 1009.0 hPa SSW 12.9 km/h 17.7 km/h 97 % 1.3 mm
04:47 15.6 °C 15.1 °C 1009.0 hPa SSW 8.0 km/h 17.7 km/h 97 % 1.5 mm
04:52 15.6 °C 15.1 °C 1009.0 hPa SW 8.0 km/h 17.7 km/h 97 % 1.5 mm
04:57 15.6 °C 15.1 °C 1009.0 hPa SSW 9.7 km/h 17.7 km/h 97 % 1.5 mm
05:02 15.7 °C 15.2 °C 1008.7 hPa SSW 12.9 km/h 17.7 km/h 97 % 1.5 mm
05:17 15.6 °C 15.0 °C 1008.7 hPa South 14.5 km/h 25.7 km/h 96 % 1.0 mm
05:22 15.6 °C 15.0 °C 1008.7 hPa SW 9.7 km/h 25.7 km/h 96 % 1.0 mm
05:32 15.6 °C 15.0 °C 1008.7 hPa SW 11.3 km/h 24.1 km/h 96 % 0.8 mm
05:42 15.5 °C 14.9 °C 1008.7 hPa SW 8.0 km/h 19.3 km/h 96 % 0.5 mm
05:47 15.4 °C 14.8 °C 1008.7 hPa SSW 17.7 km/h 24.1 km/h 96 % 0.5 mm
05:52 15.4 °C 14.6 °C 1008.7 hPa SW 12.9 km/h 24.1 km/h 95 % 0.5 mm
05:57 15.4 °C 14.6 °C 1008.7 hPa SW 14.5 km/h 22.5 km/h 95 % 0.8 mm
06:02 15.4 °C 14.6 °C 1008.7 hPa SSE 8.0 km/h 22.5 km/h 95 % 0.8 mm
06:12 15.3 °C 14.5 °C 1008.7 hPa SW 11.3 km/h 22.5 km/h 95 % 0.5 mm
06:17 15.3 °C 14.5 °C 1008.7 hPa SSW 11.3 km/h 22.5 km/h 95 % 0.5 mm
06:22 15.3 °C 14.5 °C 1009.0 hPa SSW 4.8 km/h 22.5 km/h 95 % 0.5 mm
06:27 15.2 °C 14.4 °C 1009.0 hPa SSW 6.4 km/h 17.7 km/h 95 % 0.5 mm
06:32 15.2 °C 14.4 °C 1009.0 hPa SSW 8.0 km/h 17.7 km/h 95 % 0.5 mm
06:37 15.2 °C 14.4 °C 1009.0 hPa SW 6.4 km/h 14.5 km/h 95 % 0.3 mm
06:42 15.2 °C 14.4 °C 1008.7 hPa SSW 6.4 km/h 14.5 km/h 95 % 0.3 mm
06:47 15.2 °C 14.4 °C 1008.7 hPa SSW 8.0 km/h 16.1 km/h 95 % 0.3 mm
06:52 15.1 °C 14.3 °C 1008.7 hPa SE 8.0 km/h 16.1 km/h 95 % 0.3 mm
06:57 15.1 °C 14.3 °C 1008.7 hPa SSE 4.8 km/h 16.1 km/h 95 % 0.0 mm
07:02 15.1 °C 14.3 °C 1008.7 hPa SSW 12.9 km/h 16.1 km/h 95 % 0.0 mm
07:07 15.1 °C 14.1 °C 1008.7 hPa SSW 3.2 km/h 16.1 km/h 94 % 0.0 mm
07:12 15.2 °C 14.2 °C 1009.0 hPa SW 6.4 km/h 16.1 km/h 94 % 0.0 mm
07:17 15.2 °C 14.2 °C 1009.0 hPa SW 11.3 km/h 19.3 km/h 94 % 0.0 mm
07:22 15.2 °C 14.2 °C 1009.0 hPa South 3.2 km/h 19.3 km/h 94 % 0.0 mm
07:27 15.2 °C 14.2 °C 1009.0 hPa SW 6.4 km/h 17.7 km/h 94 % 0.0 mm
07:32 15.2 °C 14.2 °C 1009.0 hPa SW 4.8 km/h 17.7 km/h 94 % 0.0 mm
07:37 15.2 °C 14.2 °C 1009.0 hPa SSW 4.8 km/h 16.1 km/h 94 % 0.0 mm
07:42 15.2 °C 14.2 °C 1009.0 hPa SSW 9.7 km/h 16.1 km/h 94 % 0.0 mm
07:47 15.2 °C 14.2 °C 1009.0 hPa SSW 8.0 km/h 19.3 km/h 94 % 0.0 mm
07:57 14.8 °C 13.3 °C 1009.4 hPa WNW 6.4 km/h 19.3 km/h 91 % 0.0 mm
08:02 14.1 °C 12.8 °C 1009.4 hPa North 6.4 km/h 19.3 km/h 92 % 0.0 mm
08:12 13.4 °C 12.5 °C 1009.4 hPa WNW 11.3 km/h 20.9 km/h 94 % 0.5 mm
08:17 13.3 °C 12.4 °C 1009.7 hPa West 3.2 km/h 17.7 km/h 94 % 0.5 mm
08:22 13.3 °C 12.4 °C 1009.7 hPa WSW 1.6 km/h 17.7 km/h 94 % 0.5 mm
08:32 13.2 °C 12.3 °C 1009.7 hPa WNW 1.6 km/h 12.9 km/h 94 % 0.5 mm
08:42 13.2 °C 12.3 °C 1009.7 hPa WNW 3.2 km/h 8.0 km/h 94 % 0.5 mm
08:47 13.2 °C 12.3 °C 1010.0 hPa WNW 1.6 km/h 8.0 km/h 94 % 0.8 mm
08:52 13.2 °C 12.4 °C 1010.0 hPa WNW 1.6 km/h 8.0 km/h 95 % 0.8 mm
08:57 13.2 °C 12.3 °C 1010.0 hPa WNW 3.2 km/h 9.7 km/h 94 % 0.8 mm
09:02 13.2 °C 12.3 °C 1010.0 hPa NNW 1.6 km/h 9.7 km/h 94 % 0.8 mm
09:12 13.2 °C 12.3 °C 1010.4 hPa WNW 1.6 km/h 9.7 km/h 94 % 0.3 mm
09:17 13.3 °C 12.5 °C 1010.0 hPa WNW 1.6 km/h 9.7 km/h 95 % 0.3 mm
09:22 13.3 °C 12.4 °C 1010.0 hPa Calm   9.7 km/h 94 % 0.3 mm
09:32 13.3 °C 12.4 °C 1010.4 hPa WNW 1.6 km/h 6.4 km/h 94 % 0.3 mm
09:37 13.4 °C 12.5 °C 1010.4 hPa Calm   6.4 km/h 94 % 0.3 mm
09:42 13.5 °C 12.4 °C 1010.4 hPa NNW 1.6 km/h 6.4 km/h 93 % 0.3 mm
09:52 13.5 °C 12.2 °C 1010.4 hPa WNW 1.6 km/h 6.4 km/h 92 % 0.0 mm
09:57 13.6 °C 12.3 °C 1010.4 hPa NW 3.2 km/h 4.8 km/h 92 % 0.0 mm
10:02 13.6 °C 12.3 °C 1010.7 hPa WNW 1.6 km/h 4.8 km/h 92 % 0.0 mm
10:12 13.8 °C 12.5 °C 1010.7 hPa Calm   4.8 km/h 92 % 0.0 mm
10:17 13.8 °C 12.4 °C 1011.1 hPa WNW 4.8 km/h 4.8 km/h 91 % 0.0 mm
10:22 13.8 °C 12.2 °C 1011.1 hPa WSW 3.2 km/h 4.8 km/h 90 % 0.0 mm
10:32 14.0 °C 12.6 °C 1011.1 hPa West 6.4 km/h 8.0 km/h 91 % 0.0 mm
10:42 13.9 °C 12.3 °C 1011.1 hPa West 4.8 km/h 8.0 km/h 90 % 0.0 mm
10:47 14.1 °C 12.8 °C 1011.1 hPa SW 1.6 km/h 9.7 km/h 92 % 0.0 mm
10:52 14.1 °C 12.7 °C 1011.1 hPa WSW 3.2 km/h 9.7 km/h 91 % 0.0 mm
10:57 14.4 °C 12.9 °C 1011.4 hPa Calm   8.0 km/h 91 % 0.0 mm
11:02 14.4 °C 12.8 °C 1011.4 hPa West 4.8 km/h 8.0 km/h 90 % 0.0 mm
11:12 14.5 °C 12.9 °C 1011.4 hPa WSW 11.3 km/h 11.3 km/h 90 % 0.0 mm
11:17 14.6 °C 12.6 °C 1011.7 hPa WNW 4.8 km/h 9.7 km/h 88 % 0.0 mm
11:32 14.7 °C 12.6 °C 1011.7 hPa SW 8.0 km/h 12.9 km/h 87 % 0.0 mm
11:42 14.7 °C 12.6 °C 1011.7 hPa WNW 4.8 km/h 14.5 km/h 87 % 0.0 mm
11:52 15.0 °C 12.7 °C 1011.7 hPa WSW 12.9 km/h 16.1 km/h 86 % 0.0 mm
11:57 14.8 °C 12.1 °C 1011.7 hPa West 9.7 km/h 14.5 km/h 84 % 0.0 mm
12:02 15.2 °C 13.2 °C 1011.7 hPa WSW 3.2 km/h 14.5 km/h 88 % 0.0 mm
12:12 15.5 °C 13.0 °C 1011.7 hPa SW 1.6 km/h 17.7 km/h 85 % 0.0 mm
12:17 15.5 °C 12.6 °C 1011.7 hPa West 9.7 km/h 16.1 km/h 83 % 0.0 mm
12:22 15.6 °C 12.9 °C 1011.7 hPa WSW 9.7 km/h 16.1 km/h 84 % 0.0 mm
12:32 15.6 °C 12.7 °C 1012.1 hPa West 8.0 km/h 19.3 km/h 83 % 0.0 mm
12:37 15.4 °C 12.5 °C 1012.1 hPa SW 8.0 km/h 17.7 km/h 83 % 0.0 mm
12:42 15.3 °C 12.6 °C 1012.1 hPa West 4.8 km/h 17.7 km/h 84 % 0.0 mm
12:47 15.3 °C 12.6 °C 1011.7 hPa WSW 9.7 km/h 17.7 km/h 84 % 0.0 mm
12:52 15.4 °C 12.7 °C 1011.7 hPa SSW 12.9 km/h 17.7 km/h 84 % 0.0 mm
12:57 15.6 °C 12.5 °C 1011.7 hPa WSW 17.7 km/h 17.7 km/h 82 % 0.0 mm
13:02 15.6 °C 12.5 °C 1011.7 hPa WSW 6.4 km/h 16.1 km/h 82 % 0.0 mm
13:07 15.9 °C 13.2 °C 1011.7 hPa SW 11.3 km/h 17.7 km/h 84 % 0.0 mm
13:12 15.9 °C 12.6 °C 1011.7 hPa West 8.0 km/h 17.7 km/h 81 % 0.0 mm
13:17 15.9 °C 12.6 °C 1011.7 hPa SW 4.8 km/h 16.1 km/h 81 % 0.0 mm
13:22 16.1 °C 12.6 °C 1011.7 hPa SW 8.0 km/h 16.1 km/h 80 % 0.0 mm
13:32 16.7 °C 12.2 °C 1011.7 hPa SW 14.5 km/h 16.1 km/h 75 % 0.0 mm
13:37 16.7 °C 12.0 °C 1011.7 hPa SW 9.7 km/h 24.1 km/h 74 % 0.0 mm
13:42 16.8 °C 12.1 °C 1011.7 hPa SW 8.0 km/h 24.1 km/h 74 % 0.0 mm
13:52 17.0 °C 12.1 °C 1011.4 hPa WSW 17.7 km/h 20.9 km/h 73 % 0.0 mm
13:57 17.1 °C 12.6 °C 1011.4 hPa WSW 6.4 km/h 22.5 km/h 75 % 0.0 mm
14:02 17.2 °C 12.1 °C 1011.4 hPa SSW 8.0 km/h 22.5 km/h 72 % 0.0 mm
14:12 17.3 °C 12.6 °C 1011.4 hPa SW 12.9 km/h 22.5 km/h 74 % 0.0 mm
14:17 17.5 °C 12.4 °C 1011.4 hPa SW 17.7 km/h 19.3 km/h 72 % 0.0 mm
14:22 17.4 °C 12.1 °C 1011.4 hPa SW 17.7 km/h 19.3 km/h 71 % 0.0 mm
14:32 17.5 °C 12.4 °C 1011.4 hPa WNW 8.0 km/h 22.5 km/h 72 % 0.0 mm
14:37 17.3 °C 12.2 °C 1011.4 hPa SW 9.7 km/h 22.5 km/h 72 % 0.0 mm
14:42 17.2 °C 12.1 °C 1011.4 hPa SW 11.3 km/h 17.7 km/h 72 % 0.0 mm
14:47 17.2 °C 12.3 °C 1011.4 hPa SW 8.0 km/h 19.3 km/h 73 % 0.0 mm
14:52 17.3 °C 12.4 °C 1011.4 hPa SW 12.9 km/h 19.3 km/h 73 % 0.0 mm
14:57 17.3 °C 12.2 °C 1011.4 hPa SW 8.0 km/h 19.3 km/h 72 % 0.0 mm
15:02 17.3 °C 11.8 °C 1011.1 hPa SW 3.2 km/h 19.3 km/h 70 % 0.0 mm
15:12 17.3 °C 11.8 °C 1011.1 hPa West 8.0 km/h 20.9 km/h 70 % 0.0 mm
15:17 17.4 °C 11.7 °C 1011.1 hPa SW 12.9 km/h 22.5 km/h 69 % 0.0 mm
15:22 17.4 °C 11.7 °C 1011.1 hPa WSW 9.7 km/h 22.5 km/h 69 % 0.0 mm
15:27 17.5 °C 11.7 °C 1011.4 hPa West 6.4 km/h 17.7 km/h 69 % 0.0 mm
15:32 17.4 °C 11.4 °C 1011.4 hPa West 4.8 km/h 17.7 km/h 68 % 0.0 mm
15:37 17.5 °C 11.7 °C 1011.1 hPa SSW 9.7 km/h 22.5 km/h 69 % 0.0 mm
15:42 17.7 °C 11.7 °C 1011.1 hPa WSW 9.7 km/h 22.5 km/h 68 % 0.0 mm
15:47 17.9 °C 11.5 °C 1011.1 hPa West 4.8 km/h 22.5 km/h 66 % 0.0 mm
15:52 17.9 °C 11.0 °C 1011.1 hPa SW 9.7 km/h 17.7 km/h 64 % 0.0 mm
15:57 17.9 °C 11.0 °C 1011.1 hPa WSW 16.1 km/h 20.9 km/h 64 % 0.0 mm
16:02 17.9 °C 10.8 °C 1011.1 hPa SSW 8.0 km/h 20.9 km/h 63 % 0.0 mm
16:12 18.1 °C 10.7 °C 1011.1 hPa SW 20.9 km/h 20.9 km/h 62 % 0.0 mm
16:17 18.0 °C 10.9 °C 1011.1 hPa SW 17.7 km/h 24.1 km/h 63 % 0.0 mm
16:22 17.9 °C 11.0 °C 1011.1 hPa SW 12.9 km/h 32.2 km/h 64 % 0.0 mm
16:37 18.1 °C 11.4 °C 1011.1 hPa WSW 12.9 km/h 17.7 km/h 65 % 0.0 mm
16:42 18.1 °C 11.2 °C 1011.1 hPa SW 16.1 km/h 17.7 km/h 64 % 0.0 mm
16:47 18.0 °C 11.1 °C 1011.1 hPa SW 16.1 km/h 17.7 km/h 64 % 0.0 mm
16:57 17.9 °C 10.5 °C 1011.1 hPa SW 16.1 km/h 24.1 km/h 62 % 0.0 mm
17:07 18.3 °C 10.9 °C 1010.7 hPa SW 9.7 km/h 24.1 km/h 62 % 0.0 mm
17:17 18.5 °C 11.1 °C 1010.7 hPa SW 12.9 km/h 24.1 km/h 62 % 0.0 mm
17:27 18.0 °C 10.6 °C 1010.7 hPa WSW 17.7 km/h 22.5 km/h 62 % 0.0 mm
17:32 18.2 °C 10.8 °C 1010.7 hPa SW 4.8 km/h 22.5 km/h 62 % 0.0 mm
17:42 18.4 °C 10.7 °C 1010.7 hPa SSW 9.7 km/h 27.4 km/h 61 % 0.0 mm
17:47 18.3 °C 10.6 °C 1010.7 hPa SW 8.0 km/h 20.9 km/h 61 % 0.0 mm
17:52 18.2 °C 10.1 °C 1010.7 hPa SW 11.3 km/h 19.3 km/h 59 % 0.0 mm
17:57 18.1 °C 10.2 °C 1010.7 hPa SW 9.7 km/h 22.5 km/h 60 % 0.0 mm
18:02 18.1 °C 10.0 °C 1010.7 hPa SW 16.1 km/h 25.7 km/h 59 % 0.0 mm
18:12 17.8 °C 9.9 °C 1010.7 hPa SW 14.5 km/h 25.7 km/h 60 % 0.0 mm
18:17 17.6 °C 9.7 °C 1011.1 hPa SSW 12.9 km/h 24.1 km/h 60 % 0.0 mm
18:22 17.6 °C 9.7 °C 1010.7 hPa WSW 8.0 km/h 24.1 km/h 60 % 0.0 mm
18:27 17.5 °C 9.9 °C 1011.1 hPa West 6.4 km/h 24.1 km/h 61 % 0.0 mm
18:32 17.4 °C 10.0 °C 1011.1 hPa SW 6.4 km/h 22.5 km/h 62 % 0.0 mm
18:37 17.4 °C 10.0 °C 1011.1 hPa WSW 9.7 km/h 22.5 km/h 62 % 0.0 mm
18:47 17.3 °C 10.2 °C 1011.1 hPa SW 3.2 km/h 17.7 km/h 63 % 0.0 mm
18:52 17.2 °C 10.3 °C 1011.1 hPa WSW 11.3 km/h 16.1 km/h 64 % 0.0 mm
18:57 17.2 °C 10.3 °C 1011.1 hPa WSW 4.8 km/h 16.1 km/h 64 % 0.0 mm
19:02 17.1 °C 10.2 °C 1011.1 hPa West 6.4 km/h 12.9 km/h 64 % 0.0 mm
19:07 16.9 °C 11.2 °C 1011.1 hPa WNW 4.8 km/h 12.9 km/h 69 % 0.0 mm
19:12 16.6 °C 11.1 °C 1011.1 hPa West 4.8 km/h 12.9 km/h 70 % 0.0 mm
19:17 16.3 °C 11.2 °C 1011.1 hPa WNW 4.8 km/h 9.7 km/h 72 % 0.0 mm
19:22 16.2 °C 11.4 °C 1011.1 hPa West 3.2 km/h 9.7 km/h 73 % 0.0 mm
19:27 16.1 °C 11.5 °C 1011.1 hPa Calm   8.0 km/h 74 % 0.0 mm
19:32 15.9 °C 11.5 °C 1011.1 hPa WNW 1.6 km/h 8.0 km/h 75 % 0.0 mm
19:37 15.8 °C 11.6 °C 1011.1 hPa Calm   4.8 km/h 76 % 0.0 mm
19:42 15.7 °C 11.5 °C 1011.4 hPa Calm   3.2 km/h 76 % 0.0 mm
19:47 15.6 °C 11.6 °C 1011.4 hPa Calm   3.2 km/h 77 % 0.0 mm
19:52 15.5 °C 11.5 °C 1011.4 hPa Calm   1.6 km/h 77 % 0.0 mm
19:57 15.4 °C 11.4 °C 1011.4 hPa Calm   1.6 km/h 77 % 0.0 mm
20:02 15.4 °C 11.6 °C 1011.7 hPa Calm   1.6 km/h 78 % 0.0 mm
20:07 15.3 °C 11.9 °C 1012.1 hPa NW 8.0 km/h 8.0 km/h 80 % 0.0 mm
20:12 15.1 °C 12.0 °C 1012.1 hPa NW 6.4 km/h 6.4 km/h 82 % 0.0 mm
20:17 14.7 °C 12.2 °C 1012.1 hPa WNW 1.6 km/h 25.7 km/h 85 % 0.0 mm
20:22 14.4 °C 12.1 °C 1012.1 hPa West 3.2 km/h 25.7 km/h 86 % 0.5 mm
20:27 14.2 °C 12.2 °C 1012.1 hPa WNW 3.2 km/h 25.7 km/h 88 % 0.5 mm
20:32 14.1 °C 12.3 °C 1012.1 hPa WSW 3.2 km/h 14.5 km/h 89 % 1.3 mm
20:37 13.9 °C 12.1 °C 1012.4 hPa SW 4.8 km/h 14.5 km/h 89 % 1.5 mm
20:42 13.8 °C 12.0 °C 1012.1 hPa WSW 6.4 km/h 11.3 km/h 89 % 1.5 mm
20:47 13.8 °C 12.0 °C 1012.1 hPa WSW 6.4 km/h 9.7 km/h 89 % 1.8 mm
20:52 13.8 °C 12.0 °C 1012.4 hPa SW 3.2 km/h 9.7 km/h 89 % 1.8 mm
21:12 13.6 °C 12.2 °C 1012.4 hPa SW 4.8 km/h 4.8 km/h 91 % 1.8 mm
21:17 13.6 °C 12.2 °C 1012.4 hPa SW 4.8 km/h 8.0 km/h 91 % 1.5 mm
21:22 13.6 °C 12.2 °C 1012.4 hPa WSW 6.4 km/h 8.0 km/h 91 % 1.5 mm
21:32 13.6 °C 12.2 °C 1012.8 hPa West 1.6 km/h 9.7 km/h 91 % 0.5 mm
21:37 13.6 °C 12.2 °C 1012.8 hPa West 1.6 km/h 9.7 km/h 91 % 0.5 mm
21:42 13.5 °C 12.2 °C 1012.8 hPa WSW 1.6 km/h 8.0 km/h 92 % 0.3 mm
21:47 13.4 °C 12.1 °C 1012.8 hPa WSW 1.6 km/h 8.0 km/h 92 % 0.0 mm
21:52 13.4 °C 12.1 °C 1012.8 hPa WSW 1.6 km/h 4.8 km/h 92 % 0.0 mm
21:57 13.3 °C 12.0 °C 1012.8 hPa WSW 1.6 km/h 4.8 km/h 92 % 0.0 mm
22:02 13.3 °C 12.2 °C 1012.8 hPa Calm   4.8 km/h 93 % 0.0 mm
22:07 13.3 °C 12.2 °C 1012.8 hPa Calm   4.8 km/h 93 % 0.0 mm
22:12 13.3 °C 12.2 °C 1013.1 hPa Calm   3.2 km/h 93 % 0.0 mm
22:17 13.3 °C 12.2 °C 1013.1 hPa WSW 1.6 km/h 3.2 km/h 93 % 0.0 mm
22:22 13.3 °C 12.2 °C 1013.1 hPa West 3.2 km/h 3.2 km/h 93 % 0.0 mm
22:27 13.3 °C 12.2 °C 1013.1 hPa Calm   4.8 km/h 93 % 0.0 mm
22:32 13.3 °C 12.2 °C 1013.1 hPa WSW 1.6 km/h 4.8 km/h 93 % 0.0 mm
22:37 13.3 °C 12.2 °C 1013.1 hPa WSW 1.6 km/h 4.8 km/h 93 % 0.0 mm
22:42 13.3 °C 12.2 °C 1013.1 hPa SW 1.6 km/h 4.8 km/h 93 % 0.0 mm
22:47 13.3 °C 12.2 °C 1013.1 hPa SW 1.6 km/h 3.2 km/h 93 % 0.0 mm
22:52 13.2 °C 11.9 °C 1013.1 hPa WSW 1.6 km/h 3.2 km/h 92 % 0.0 mm
22:57 13.3 °C 11.9 °C 1013.1 hPa WSW 4.8 km/h 8.0 km/h 91 % 0.0 mm
23:02 13.2 °C 11.6 °C 1013.1 hPa West 4.8 km/h 9.7 km/h 90 % 0.0 mm
23:07 13.2 °C 11.6 °C 1013.1 hPa WSW 1.6 km/h 9.7 km/h 90 % 0.0 mm
23:12 13.1 °C 11.7 °C 1013.1 hPa WSW 1.6 km/h 8.0 km/h 91 % 0.0 mm
23:17 13.1 °C 11.7 °C 1013.1 hPa SW 3.2 km/h 6.4 km/h 91 % 0.0 mm
23:22 13.0 °C 11.6 °C 1013.1 hPa SSW 3.2 km/h 4.8 km/h 91 % 0.0 mm
23:32 12.9 °C 11.5 °C 1013.1 hPa SW 4.8 km/h 6.4 km/h 91 % 0.0 mm
23:42 12.9 °C 11.6 °C 1013.1 hPa SW 3.2 km/h 8.0 km/h 92 % 0.0 mm
23:47 12.8 °C 11.5 °C 1013.4 hPa SW 4.8 km/h 8.0 km/h 92 % 0.0 mm
23:52 12.8 °C 11.5 °C 1013.4 hPa SW 4.8 km/h 8.0 km/h 92 % 0.0 mm
23:57 12.7 °C 11.6 °C 1013.4 hPa SSW 1.6 km/h 6.4 km/h 93 % 0.0 mm
Meteo18
Compliments of Weather Underground - 4 mb

Script developed by  Jim McMurry - jmcmurry@mwt.net Adapted for the template by  Wim van der Kuil - Leuven-Template.eu

You find our weather info also at:

European Weather Network

Weather Underground

Equipment we use:

Weather-station
Davis Vue

Weather-program
Meteohub

Weather-server
Raspberry PI 2 B+

Provider
1 and 1

Davis Vue

Meteohub

Raspberry PI 2 B+

1 and 1